Regional Weather Roundup
Issued by NWS

Home | Current Version | Previous Version | Graphics & Text | Print | Product List | Glossary On
Versions: 1 2 3 4 5 6 7 8 9 10 11 12 13 14 15 16 17 18 19 20 21 22 23 24 25 26 27 28 29 30 31 32 33 34 35 36 37 38 39 40 41 42 43 44 45 46 47 48 49 50
040
ASUS44 KJAN 221603
RWRMS

MISSISSIPPI HOURLY WEATHER ROUNDUP
NATIONAL WEATHER SERVICE JACKSON MS
1100 AM CDT WED OCT 22 2014

NOTE: "FAIR: INDICATES FEW OR NO CLOUDS BELOW 12,000 FEET WITH NO
SIGNIFICANT WEATHER AND/OR OBSTRUCTIONS TO VISIBILITY.

MSZ001>002-007>008-010>013-018>021-025>028-034>036-221700-
NORTHWEST MISSISSIPPI

CITY           SKY/WX    TMP DP  RH WIND       PRES   REMARKS
CLARKSDALE     FAIR      63  48  59 NE10      30.24F
CLEVELAND      FAIR      65  51  62 E10       30.22R
GREENWOOD        N/A    N/A N/A N/A MISG      30.21R
GREENVILLE     SUNNY     67  49  52 E10       30.21R
GRENADA          N/A    N/A N/A N/A MISG        N/A
OLIVE BRANCH   SUNNY     57  43  58 E10       30.26R
OXFORD         FAIR      59  41  51 E9        30.25S
TUNICA         SUNNY     63  45  51 NE9       30.26R
$$

MSZ003>006-009-014>017-022>024-029>033-037>039-221700-
NORTHEAST MISSISSIPPI

CITY           SKY/WX    TMP DP  RH WIND       PRES   REMARKS
COLUMBUS AFB   SUNNY     62  42  48 E9        30.21S
CORINTH        FAIR      59  41  51 NE14      30.25S
GOLDN TRIANGLE SUNNY     63  43  48 NE10      30.20S
STARKVILLE     FAIR      63  45  51 NE10      30.20S
TUPELO         SUNNY     61  41  47 E13       30.23S
$$

MSZ040-058-221700-
CENTRAL MISSISSIPPI

CITY           SKY/WX    TMP DP  RH WIND       PRES   REMARKS
JACKSON INTL   SUNNY     68  51  54 NE7       30.17S
JACKSON HAWKNS SUNNY     69  51  52 N7        30.17R
MERIDIAN KEY   SUNNY     64  49  57 E10       30.17R
MERIDIAN NAS   SUNNY     65  48  54 N9        30.18S
RAYMOND        FAIR      68  63  83 E3        30.17R
VICKSBURG      SUNNY     71  53  52 NE8       30.17S
$$

MSZ059>079-221700-
SOUTH MISSISSIPPI

CITY           SKY/WX    TMP DP  RH WIND       PRES   REMARKS
BROOKHAVEN     FAIR      70  52  52 NE6       30.17S
HATTIESBURG    SUNNY     72  51  47 E8        30.14S
MCCOMB         SUNNY     71  50  47 E10       30.14S
NATCHEZ        SUNNY     70  54  56 NE12      30.16S
PINE BELT      SUNNY     70  52  52 NE7       30.16R
$$

MSZ080>082-221700-
COASTAL MISSISSIPPI

CITY           SKY/WX    TMP DP  RH WIND       PRES   REMARKS
BAY ST LOUIS   SUNNY     73  50  43 E8        30.11S
BILOXI         SUNNY     74  53  47 NE9       30.10S
PASCAGOULA     SUNNY     74  51  44 NE9       30.10S
GULFPORT       SUNNY     74  51  44 E9        30.10S
$$



USA.gov is the U.S. government's official web portal to all federal, state and local government web resources and services.